Location: All Nations United Methodist Church
(33.0215°N, 96.7483°W)
Time: 14:39:41
(UTC+00:00)

FALCON 9 DEB - Pass Details

Date: 24 January 2021
Orbit: 372 x 386 km, 53.0° (Epoch: 07 March)

Event Time Altitude Azimuth Distance (km) Brightness Sun altitude
Exits shadow 12:10:19 25° 224° (SW) 805 4.2 -16.1°
Maximum altitude 12:11:58 89° 319° (NW) 380 2.7 -15.8°
Drops below altitude 10° 12:15:03 10° 44° (NE) 1,382 6.1 -15.1°
Sets 12:17:05 0° 44° (NE) 2,232 7.2 -14.7°
